MSR59M HELX-HESN

Flight info

Callsign MSR59M
Flight time 0h 26m
Altitude 15000
Route LXR W605 ASN
Aircraft B738/M-SDE2E3FGHIRWXY/LB1

Departure

Time 2026-05-05 16:20
Airport Luxor International Airport (HELX)

Arrival

Time 2026-05-05 16:47
Airport Aswan International Airport (HESN)
Time Latitude Longitude Altitude Speed Heading
2026-05-05 16:05 25.67334 32.70139 288 ft 0 kts 296°
2026-05-05 16:12 25.67335 32.70139 288 ft 1 kts 296°
2026-05-05 16:13 25.67327 32.70089 288 ft 0 kts 214°
2026-05-05 16:13 25.67323 32.70086 288 ft 3 kts 212°
2026-05-05 16:13 25.67259 32.70049 292 ft 16 kts 208°
2026-05-05 16:14 25.67110 32.70125 291 ft 15 kts 121°
2026-05-05 16:14 25.67025 32.70316 292 ft 13 kts 114°
2026-05-05 16:15 25.66860 32.70355 291 ft 16 kts 202°
2026-05-05 16:15 25.66653 32.70259 295 ft 17 kts 202°
2026-05-05 16:16 25.66440 32.70161 294 ft 16 kts 202°
2026-05-05 16:16 25.66243 32.70070 297 ft 15 kts 203°
2026-05-05 16:17 25.66056 32.69985 298 ft 16 kts 202°
2026-05-05 16:17 25.65937 32.69946 300 ft 19 kts 168°
2026-05-05 16:18 25.65903 32.70092 299 ft 0 kts 24°
2026-05-05 16:19 25.65906 32.70093 298 ft 7 kts 23°
2026-05-05 16:19 25.66250 32.70252 299 ft 99 kts 23°
2026-05-05 16:19 25.68391 32.71235 793 ft 210 kts 19°
2026-05-05 16:20 25.71165 32.73427 1951 ft 273 kts 58°
2026-05-05 16:20 25.70884 32.77398 4273 ft 281 kts 125°
2026-05-05 16:21 25.68008 32.79021 5804 ft 286 kts 183°
2026-05-05 16:22 25.62125 32.78428 8442 ft 289 kts 183°
2026-05-05 16:22 25.58050 32.78478 10087 ft 296 kts 184°
2026-05-05 16:23 25.53744 32.78496 10949 ft 328 kts 184°
2026-05-05 16:23 25.51386 32.78497 10971 ft 351 kts 184°
2026-05-05 16:23 25.46211 32.78500 10975 ft 389 kts 183°
2026-05-05 16:24 25.43456 32.78503 10975 ft 400 kts 183°
2026-05-05 16:24 25.40663 32.78509 10961 ft 400 kts 183°
2026-05-05 16:24 25.35121 32.78517 10951 ft 397 kts 183°
2026-05-05 16:25 25.32357 32.78517 10955 ft 397 kts 183°
2026-05-05 16:25 25.26831 32.78515 10965 ft 398 kts 183°
2026-05-05 16:25 25.24040 32.78513 11356 ft 401 kts 184°
2026-05-05 16:26 25.18475 32.78506 12577 ft 402 kts 184°
2026-05-05 16:26 25.12860 32.78508 13759 ft 406 kts 184°
2026-05-05 16:27 25.10012 32.78551 14201 ft 410 kts 182°
2026-05-05 16:27 25.07142 32.78634 14676 ft 413 kts 182°
2026-05-05 16:27 25.04271 32.78731 14937 ft 412 kts 182°
2026-05-05 16:27 25.01410 32.78828 14953 ft 412 kts 182°
2026-05-05 16:28 24.98542 32.78920 14956 ft 412 kts 182°
2026-05-05 16:28 24.95674 32.79007 14960 ft 412 kts 182°
2026-05-05 16:28 24.92806 32.79090 14946 ft 412 kts 182°
2026-05-05 16:28 24.89939 32.79171 14952 ft 412 kts 182°
2026-05-05 16:29 24.87067 32.79252 14959 ft 411 kts 182°
2026-05-05 16:29 24.84242 32.79330 14958 ft 411 kts 182°
2026-05-05 16:29 24.81346 32.79410 14956 ft 411 kts 182°
2026-05-05 16:29 24.78487 32.79489 14952 ft 411 kts 182°
2026-05-05 16:30 24.75653 32.79567 14953 ft 411 kts 182°
2026-05-05 16:30 24.72789 32.79647 14955 ft 411 kts 182°
2026-05-05 16:30 24.69928 32.79726 14955 ft 411 kts 182°
2026-05-05 16:30 24.67070 32.79804 14940 ft 411 kts 182°
2026-05-05 16:31 24.64207 32.79882 14944 ft 411 kts 182°
2026-05-05 16:31 24.61342 32.79961 14952 ft 411 kts 182°
2026-05-05 16:31 24.58485 32.80038 14950 ft 411 kts 182°
2026-05-05 16:31 24.55629 32.80116 14948 ft 410 kts 182°
2026-05-05 16:32 24.52779 32.80194 14947 ft 410 kts 182°
2026-05-05 16:32 24.49922 32.80272 14947 ft 410 kts 182°
2026-05-05 16:32 24.47078 32.80350 14951 ft 410 kts 182°
2026-05-05 16:32 24.44223 32.80429 14950 ft 410 kts 182°
2026-05-05 16:33 24.41402 32.80507 14949 ft 410 kts 182°
2026-05-05 16:33 24.38543 32.80585 14944 ft 411 kts 182°
2026-05-05 16:33 24.35695 32.80664 14797 ft 404 kts 182°
2026-05-05 16:33 24.32945 32.80743 14544 ft 387 kts 182°
2026-05-05 16:34 24.30283 32.80818 14312 ft 378 kts 182°
2026-05-05 16:34 24.27675 32.80889 14081 ft 371 kts 182°
2026-05-05 16:34 24.25114 32.80958 13856 ft 366 kts 182°
2026-05-05 16:34 24.22572 32.81025 13616 ft 366 kts 182°
2026-05-05 16:35 24.20027 32.81091 13359 ft 365 kts 182°
2026-05-05 16:35 24.17490 32.81158 13106 ft 365 kts 182°
2026-05-05 16:35 24.14952 32.81226 12856 ft 364 kts 182°
2026-05-05 16:35 24.12423 32.81294 12588 ft 364 kts 181°
2026-05-05 16:36 24.09893 32.81308 12309 ft 360 kts 187°
2026-05-05 16:36 24.07530 32.80709 11900 ft 350 kts 206°
2026-05-05 16:36 24.05471 32.79367 11462 ft 342 kts 220°
2026-05-05 16:36 24.03643 32.77712 11009 ft 339 kts 221°
2026-05-05 16:37 24.01857 32.76080 10821 ft 328 kts 221°
2026-05-05 16:37 24.00098 32.74544 10654 ft 317 kts 214°
2026-05-05 16:37 23.98134 32.73588 10528 ft 301 kts 199°
2026-05-05 16:37 23.96161 32.73010 10417 ft 285 kts 197°
2026-05-05 16:38 23.94298 32.72502 10163 ft 276 kts 197°
2026-05-05 16:38 23.92436 32.71991 9697 ft 276 kts 197°
2026-05-05 16:38 23.90583 32.71474 9186 ft 275 kts 197°
2026-05-05 16:38 23.88726 32.70950 8699 ft 275 kts 197°
2026-05-05 16:39 23.86878 32.70425 8256 ft 273 kts 198°
2026-05-05 16:39 23.85020 32.69896 7786 ft 272 kts 198°
2026-05-05 16:39 23.83205 32.69379 7329 ft 272 kts 198°
2026-05-05 16:39 23.81376 32.68861 6890 ft 272 kts 196°
2026-05-05 16:40 23.79477 32.68788 6374 ft 280 kts 168°
2026-05-05 16:40 23.77771 32.69792 6043 ft 279 kts 136°
2026-05-05 16:40 23.76714 32.71549 5541 ft 278 kts 104°
2026-05-05 16:40 23.76537 32.73591 5213 ft 268 kts 81°
2026-05-05 16:41 23.76825 32.75578 4918 ft 259 kts 77°
2026-05-05 16:41 23.77127 32.77456 4841 ft 244 kts 76°
2026-05-05 16:41 23.77409 32.79252 4441 ft 243 kts 76°
2026-05-05 16:41 23.77694 32.81099 3955 ft 243 kts 76°
2026-05-05 16:42 23.78071 32.82810 3808 ft 220 kts 58°
2026-05-05 16:42 23.79006 32.83947 3746 ft 190 kts 30°
2026-05-05 16:42 23.80164 32.84491 3543 ft 175 kts
2026-05-05 16:42 23.81329 32.84480 3371 ft 162 kts 355°
2026-05-05 16:43 23.82438 32.84378 3172 ft 158 kts 353°
2026-05-05 16:43 23.83491 32.84233 2977 ft 150 kts 352°
2026-05-05 16:43 23.84501 32.84072 2797 ft 142 kts 351°
2026-05-05 16:43 23.85491 32.83906 2573 ft 144 kts 351°
2026-05-05 16:44 23.86477 32.83736 2381 ft 140 kts 351°
2026-05-05 16:44 23.87426 32.83545 2163 ft 140 kts 348°
2026-05-05 16:44 23.88378 32.83342 2019 ft 139 kts 351°
2026-05-05 16:44 23.89337 32.83179 1837 ft 141 kts 352°
2026-05-05 16:45 23.90325 32.83044 1653 ft 143 kts 352°
2026-05-05 16:45 23.91301 32.82868 1453 ft 141 kts 352°
2026-05-05 16:45 23.92261 32.82726 1264 ft 139 kts 352°
2026-05-05 16:45 23.93218 32.82541 987 ft 138 kts 352°
2026-05-05 16:46 23.94158 32.82388 845 ft 134 kts 350°
2026-05-05 16:46 23.95069 32.82232 679 ft 128 kts 351°
2026-05-05 16:46 23.95854 32.82097 658 ft 94 kts 351°
2026-05-05 16:46 23.96349 32.82011 652 ft 53 kts 351°
2026-05-05 16:47 23.96698 32.81950 647 ft 44 kts 351°
2026-05-05 16:47 23.96867 32.81947 643 ft 23 kts 35°
2026-05-05 16:47 23.96853 32.82066 644 ft 13 kts 158°
2026-05-05 16:47 23.96798 32.82118 645 ft 6 kts 153°
2026-05-05 16:48 23.96751 32.82111 645 ft 8 kts 194°
2026-05-05 16:48 23.96669 32.82104 646 ft 16 kts 175°
2026-05-05 16:48 23.96543 32.82124 649 ft 18 kts 167°
2026-05-05 16:48 23.96512 32.82239 650 ft 17 kts 80°
2026-05-05 16:49 23.96587 32.82285 650 ft 14 kts 352°
2026-05-05 16:49 23.96609 32.82282 648 ft 0 kts 352°